TimeCDT,TemperatureF,Dew PointF,Humidity,Sea Level PressureIn,VisibilityMPH,Wind Direction,Wind SpeedMPH,Gust SpeedMPH,PrecipitationIn,Events,Conditions,WindDirDegrees,DateUTC
12:55 AM,70.0,68.4,95,30.03,10.0,Calm,Calm,-,N/A,,Partly Cloudy,0,2012-10-06 05:55:00
1:26 AM,68.0,68.0,100,30.02,2.5,Calm,Calm,-,N/A,,Clear,0,2012-10-06 06:26:00
1:27 AM,68.0,68.0,100,30.02,2.0,Calm,Calm,-,N/A,,Clear,0,2012-10-06 06:27:00
1:35 AM,68.0,68.0,100,30.02,2.5,Calm,Calm,-,N/A,,Clear,0,2012-10-06 06:35:00
1:36 AM,68.0,68.0,100,30.02,3.0,Calm,Calm,-,N/A,,Clear,0,2012-10-06 06:36:00
1:41 AM,68.0,68.0,100,30.02,2.5,Calm,Calm,-,N/A,,Clear,0,2012-10-06 06:41:00
1:42 AM,68.0,68.0,100,30.02,2.0,Calm,Calm,-,N/A,,Clear,0,2012-10-06 06:42:00
1:43 AM,68.0,68.0,100,30.02,1.5,Calm,Calm,-,N/A,,Clear,0,2012-10-06 06:43:00
1:44 AM,68.0,68.0,100,30.02,1.2,Calm,Calm,-,N/A,,Clear,0,2012-10-06 06:44:00
1:45 AM,68.0,68.0,100,30.02,1.0,Calm,Calm,-,N/A,,Clear,0,2012-10-06 06:45:00
1:48 AM,68.0,68.0,100,30.02,0.8,Calm,Calm,-,N/A,,Clear,0,2012-10-06 06:48:00
1:51 AM,68.0,68.0,100,30.01,1.0,Calm,Calm,-,N/A,,Partly Cloudy,0,2012-10-06 06:51:00
1:55 AM,68.5,68.4,99,30.01,1.0,Calm,Calm,-,N/A,,Partly Cloudy,0,2012-10-06 06:55:00
1:58 AM,68.0,68.0,100,30.01,1.5,Calm,Calm,-,N/A,,Scattered Clouds,0,2012-10-06 06:58:00
2:01 AM,68.0,68.0,100,30.01,2.0,Calm,Calm,-,N/A,,Mostly Cloudy,0,2012-10-06 07:01:00
2:02 AM,68.0,68.0,100,30.01,2.5,Calm,Calm,-,N/A,,Mostly Cloudy,0,2012-10-06 07:02:00
2:03 AM,68.0,68.0,100,30.01,3.0,Calm,Calm,-,N/A,,Mostly Cloudy,0,2012-10-06 07:03:00
2:55 AM,68.5,68.2,99,30.00,6.0,Calm,Calm,-,N/A,,Scattered Clouds,0,2012-10-06 07:55:00
3:29 AM,68.0,68.0,100,29.99,2.5,Calm,Calm,-,N/A,,Clear,0,2012-10-06 08:29:00
3:32 AM,68.0,68.0,100,29.99,2.0,Calm,Calm,-,N/A,,Clear,0,2012-10-06 08:32:00
3:33 AM,68.0,68.0,100,29.99,1.8,Calm,Calm,-,N/A,,Clear,0,2012-10-06 08:33:00
3:49 AM,68.0,66.2,94,29.99,1.2,Calm,Calm,-,N/A,,Clear,0,2012-10-06 08:49:00
3:50 AM,68.0,66.2,94,29.99,1.0,Calm,Calm,-,N/A,,Clear,0,2012-10-06 08:50:00
3:55 AM,66.9,66.6,99,29.98,1.0,Calm,Calm,-,N/A,,Clear,0,2012-10-06 08:55:00
4:03 AM,66.2,66.2,100,29.98,1.2,Calm,Calm,-,N/A,,Clear,0,2012-10-06 09:03:00
4:05 AM,66.2,66.2,100,29.99,1.5,Calm,Calm,-,N/A,,Clear,0,2012-10-06 09:05:00
4:08 AM,66.2,66.2,100,29.99,2.0,NNW,3.5,-,N/A,,Clear,330,2012-10-06 09:08:00
4:10 AM,66.2,66.2,100,29.99,2.5,NNW,3.5,-,N/A,,Clear,330,2012-10-06 09:10:00
4:11 AM,66.2,66.2,100,29.99,3.0,NNW,3.5,-,N/A,,Clear,330,2012-10-06 09:11:00
4:22 AM,66.2,66.2,100,29.99,2.5,Calm,Calm,-,N/A,,Clear,0,2012-10-06 09:22:00
4:23 AM,66.2,66.2,100,29.99,1.8,Calm,Calm,-,N/A,,Clear,0,2012-10-06 09:23:00
4:25 AM,66.2,66.2,100,29.99,1.2,Calm,Calm,-,N/A,,Clear,0,2012-10-06 09:25:00
4:26 AM,66.2,66.2,100,29.99,1.0,Calm,Calm,-,N/A,,Clear,0,2012-10-06 09:26:00
4:27 AM,66.2,66.2,100,29.99,0.8,Calm,Calm,-,N/A,,Clear,0,2012-10-06 09:27:00
4:30 AM,66.2,66.2,100,29.99,0.5,Calm,Calm,-,N/A,Fog,Fog,0,2012-10-06 09:30:00
4:45 AM,66.2,66.2,100,29.99,0.2,Calm,Calm,-,N/A,Fog,Fog,0,2012-10-06 09:45:00
4:55 AM,65.5,65.1,99,29.99,0.5,NW,3.5,-,N/A,Fog,Fog,320,2012-10-06 09:55:00
5:09 AM,66.2,64.4,94,29.99,0.2,Calm,Calm,-,N/A,Fog,Fog,0,2012-10-06 10:09:00
5:21 AM,66.2,66.2,100,29.99,0.5,Calm,Calm,-,N/A,Fog,Fog,0,2012-10-06 10:21:00
5:23 AM,66.2,66.2,100,30.00,0.5,Calm,Calm,-,N/A,Fog,Fog,0,2012-10-06 10:23:00
5:30 AM,66.2,66.2,100,30.00,0.8,Calm,Calm,-,N/A,,Mist,0,2012-10-06 10:30:00
5:34 AM,66.2,66.2,100,30.00,0.5,Calm,Calm,-,N/A,Fog,Fog,0,2012-10-06 10:34:00
5:43 AM,66.2,66.2,100,30.00,0.2,North,4.6,-,N/A,Fog,Fog,350,2012-10-06 10:43:00
5:55 AM,65.5,65.3,99,30.00,0.2,NNW,3.5,-,N/A,Fog,Fog,340,2012-10-06 10:55:00
6:00 AM,66.2,66.2,100,30.00,0.5,NW,3.5,-,N/A,Fog,Fog,320,2012-10-06 11:00:00
6:13 AM,66.2,66.2,100,30.01,0.2,Calm,Calm,-,N/A,Fog,Fog,0,2012-10-06 11:13:00
6:55 AM,66.0,65.7,99,30.01,0.2,Calm,Calm,-,N/A,Fog,Fog,0,2012-10-06 11:55:00
7:55 AM,67.5,67.1,99,30.02,0.2,NE,3.5,-,N/A,Fog,Fog,40,2012-10-06 12:55:00
8:30 AM,69.8,68.0,94,30.03,0.2,North,3.5,-,N/A,Fog,Fog,360,2012-10-06 13:30:00
8:54 AM,69.8,69.8,100,30.03,0.2,North,3.5,-,N/A,Fog,Fog,360,2012-10-06 13:54:00
8:55 AM,69.8,69.4,99,30.03,0.2,North,4.6,-,N/A,Fog,Fog,360,2012-10-06 13:55:00
9:15 AM,69.8,69.8,100,30.03,0.5,North,3.5,-,N/A,Fog,Fog,360,2012-10-06 14:15:00
9:18 AM,71.6,71.6,100,30.03,0.8,North,3.5,-,N/A,,Mist,10,2012-10-06 14:18:00
9:20 AM,71.6,71.6,100,30.03,1.0,North,4.6,-,N/A,,Mist,360,2012-10-06 14:20:00
9:21 AM,71.6,71.6,100,30.03,1.0,North,4.6,-,N/A,,Mist,360,2012-10-06 14:21:00
9:22 AM,71.6,71.6,100,30.03,1.2,North,4.6,-,N/A,,Overcast,360,2012-10-06 14:22:00
9:23 AM,71.6,71.6,100,30.03,1.5,North,4.6,-,N/A,,Overcast,10,2012-10-06 14:23:00
9:25 AM,71.6,71.6,100,30.03,2.0,Variable,4.6,-,N/A,,Overcast,0,2012-10-06 14:25:00
9:26 AM,71.6,71.6,100,30.03,2.5,Variable,5.8,-,N/A,,Overcast,0,2012-10-06 14:26:00
9:27 AM,71.6,71.6,100,30.03,3.0,North,5.8,-,N/A,,Overcast,350,2012-10-06 14:27:00
9:38 AM,71.6,71.6,100,30.02,10.0,North,5.8,-,N/A,,Overcast,350,2012-10-06 14:38:00
9:48 AM,71.6,71.6,100,30.03,10.0,NNW,3.5,-,N/A,,Overcast,340,2012-10-06 14:48:00
9:55 AM,72.5,72.5,100,30.03,10.0,North,6.9,-,N/A,,Mostly Cloudy,10,2012-10-06 14:55:00
10:05 AM,73.4,73.4,100,30.02,10.0,North,6.9,-,N/A,,Scattered Clouds,360,2012-10-06 15:05:00
10:55 AM,82.4,67.8,61,30.02,10.0,NW,9.2,-,N/A,,Clear,320,2012-10-06 15:55:00
11:55 AM,84.2,65.5,53,30.01,10.0,NNW,6.9,-,N/A,,Clear,330,2012-10-06 16:55:00
12:55 PM,86.4,64.6,48,29.98,10.0,Variable,5.8,-,N/A,,Clear,0,2012-10-06 17:55:00
1:55 PM,86.0,61.3,43,29.95,10.0,Calm,Calm,-,N/A,,Partly Cloudy,0,2012-10-06 18:55:00
2:55 PM,86.7,63.3,45,29.92,10.0,NNW,6.9,-,N/A,,Clear,340,2012-10-06 19:55:00
3:55 PM,86.9,60.8,41,29.91,10.0,NW,4.6,-,N/A,,Clear,310,2012-10-06 20:55:00
4:55 PM,86.5,61.7,43,29.91,10.0,NW,6.9,-,N/A,,Clear,310,2012-10-06 21:55:00
5:55 PM,83.8,63.7,51,29.92,10.0,North,3.5,-,N/A,,Clear,350,2012-10-06 22:55:00
6:55 PM,75.6,64.6,69,29.94,10.0,South,3.5,-,N/A,,Clear,180,2012-10-06 23:55:00
7:55 PM,75.9,68.4,77,29.96,10.0,Calm,Calm,-,N/A,,Clear,0,2012-10-07 00:55:00
8:55 PM,72.9,67.3,83,29.97,10.0,Calm,Calm,-,N/A,,Clear,0,2012-10-07 01:55:00
9:55 PM,71.1,64.2,79,29.99,10.0,North,5.8,-,N/A,,Clear,350,2012-10-07 02:55:00
10:55 PM,69.6,64.2,83,29.99,10.0,North,4.6,-,N/A,,Clear,350,2012-10-07 03:55:00
11:55 PM,68.0,64.2,88,29.99,10.0,North,4.6,-,N/A,,Clear,360,2012-10-07 04:55:00